Regional Weather Roundup
Issued by NWS Cleveland, OH

Home | Current Version | Previous Version | Text Only | Print | Product List | Glossary On
Versions: 1 2 3 4 5 6 7 8 9 10 11 12 13 14 15 16 17 18 19 20 21 22 23 24 25 26 27 28 29 30 31 32 33 34 35 36 37 38 39 40 41 42 43 44 45 46 47 48 49 50
000
ASUS41 KCLE 251712
RWRCLE
OHIO REGIONAL WEATHER ROUNDUP
NATIONAL WEATHER SERVICE WILMINGTON, OH
100 PM EDT WED MAY 25 2016

NOTE: "FAIR" INDICATES FEW OR NO CLOUDS BELOW 12,000 FEET WITH NO
SIGNIFICANT WEATHER AND/OR OBSTRUCTIONS TO VISIBILITY.

OHZ001>008-015>018-024>027-034-035-043-044-251800-
   NORTHWEST OHIO

CITY           SKY/WX    TMP DP  RH WIND       PRES   REMARKS
DEFIANCE       FAIR      82  58  43 S13G20    30.07F
FINDLAY        CLOUDY    77  57  50 SW12      30.11R
TOLEDO EXPRESS PTSUNNY   83  55  38 S12G18    30.07F
TOLEDO EXEC    FAIR      84  56  38 SW15      30.08F
LIMA           PTSUNNY   77  62  59 S7        30.11F
$$

OHZ009>014-019>023-028>033-038-089-251800-
   NORTHEAST OHIO

CITY           SKY/WX    TMP DP  RH WIND       PRES   REMARKS
CLE-HOPKINS    FAIR      84  53  34 S8        30.14F
CLE-LAKEFRONT  FAIR      75  60  59 NW9       30.11F
CUY CO. ARPT   MOSUNNY   82  57  42 NW9       30.14F
LORAIN-ELYRIA  FAIR      82  53  36 SW15      30.12F
ASHTABULA      FAIR      83  48  29 W13G21    30.14S
AKRON-CANTON   PTSUNNY   80  48  32 W14       30.16F
WOOSTER        FAIR      81  54  39 SW12      30.16F
MANSFIELD      PTSUNNY   79  55  43 SW16      30.16F
YOUNGSTOWN     FAIR      80  53  39 SW13      30.17S
$$

OHZ042-051>053-060>062-070>072-077>081-251800-
  SOUTHWEST OHIO

CITY           SKY/WX    TMP DP  RH WIND       PRES   REMARKS
CINC-COVINGTON PTSUNNY   75  61  61 S12       30.13S
CINC-LUNKEN    FAIR      73  61  65 S9        30.14S
HAMILTON       FAIR      78  60  53 S8        30.13S
DAYTON         PTSUNNY   76  58  53 S14       30.14S
WRIGHT-PAT AFB PTSUNNY   78  61  55 S9        30.13S
DAYTON GENERAL FAIR      76  59  55 S10       30.12F
WILMINGTON     CLOUDY    72  60  66 S6        30.16S
$$

OHZ036-037-039>041-045>050-054>059-063>069-073>076-082>088-251800-
  CENTRAL AND SOUTHEAST OHIO

CITY           SKY/WX    TMP DP  RH WIND       PRES   REMARKS
COLUMBUS       CLOUDY    77  55  46 S8        30.14F
OSU AIRPORT    PTSUNNY   80  55  42 SW13      30.14F
BOLTON FIELD   CLOUDY    79  57  47 SW13      30.16S
RICKENBACK AFB PTSUNNY   79  57  47 S10       30.14F
NEWARK         FAIR      84  55  36 S8        30.15S
MARION         PTSUNNY   78  55  44 W10       30.14F
LANCASTER      PTSUNNY   78  55  44 S12       30.16S
ZANESVILLE     FAIR      82  51  34 SW9       30.17S
NEW PHILLY     FAIR      80  51  36 S8        30.17S
$$




USA.gov is the U.S. government's official web portal to all federal, state and local government web resources and services.